Tracking 18785 objects as of 20-August-2017
HD Live streaming from Space Station
objects crossing your sky now

GB 3

Track GB 3 now!
10-day predictions
GB 3 is classified as:


NORAD ID: 14180
Int'l Code: 1983-056G
Perigee: 414.7 km
Apogee: 1,756.8 km
Inclination: 63.3 °
Period: 106.8 minutes
Semi major axis: 7456 km
RCS: Unknown
Launch date: June 9, 1983
Source: United States (US)
Launch site: AIR FORCE WESTERN TEST RANGE (AFWTR)
Your satellite tracking list
Your tracking list is empty





NASA's NSSDC Master Catalog

Two Line Element Set (TLE):
1 14180U 83056G   15266.08739443 0.00001500  00000-0  15415-3 0    02
2 14180  63.3230 329.2048 0899915  57.5193 302.4807 13.48272908    00
Source of the keplerian elements: McCants